| time (UTC) | temp F | wind direction | speed MPH | gust MPH | rain 1hr in | rain 24hr in | rain mn in | humidity % | barometer mb |
| 20260505021533 | 63 | 135 | 0.0 | 10.0 | 0.00 | 0.00 | 0.00 | 46 | 1007.4 |
| 20260505020036 | 63 | 126 | 0.0 | 5.0 | 0.00 | 0.00 | 0.00 | 45 | 1007.3 |
| 20260505014509 | 64 | 300 | 0.0 | 6.0 | 0.00 | 0.00 | 0.00 | 45 | 1007.4 |
| 20260505013008 | 63 | 132 | 1.0 | 5.0 | 0.00 | 0.00 | 0.00 | 45 | 1007.1 |
| 20260505011511 | 64 | 173 | 1.0 | 5.0 | 0.00 | 0.00 | 0.00 | 44 | 1007.1 |
| 20260505010019 | 64 | 162 | 0.0 | 4.0 | 0.00 | 0.00 | 0.00 | 44 | 1006.9 |
| 20260505004512 | 64 | 194 | 1.0 | 7.0 | 0.00 | 0.00 | 0.00 | 43 | 1006.8 |
| 20260505003011 | 64 | 164 | 0.0 | 5.0 | 0.00 | 0.00 | 0.00 | 43 | 1006.7 |
| 20260505001510 | 65 | 132 | 0.0 | 5.0 | 0.00 | 0.00 | 0.00 | 43 | 1006.5 |
| 20260505000014 | 66 | 151 | 1.0 | 5.0 | 0.00 | 0.00 | 0.00 | 41 | 1006.5 |
| 20260504234514 | 66 | 154 | 1.0 | 7.0 | 0.00 | 0.00 | 0.00 | 40 | 1006.5 |
| 20260504233013 | 67 | 174 | 0.0 | 6.0 | 0.00 | 0.00 | 0.00 | 39 | 1006.3 |
| 20260504231515 | 68 | 254 | 1.0 | 8.0 | 0.00 | 0.00 | 0.00 | 39 | 1006.2 |
| 20260504230013 | 68 | 209 | 2.0 | 7.0 | 0.00 | 0.00 | 0.00 | 37 | 1006.1 |
| 20260504224512 | 68 | 126 | 0.0 | 7.0 | 0.00 | 0.00 | 0.00 | 38 | 1006.2 |
| 20260504223017 | 68 | 240 | 1.0 | 12.0 | 0.00 | 0.00 | 0.00 | 37 | 1006.1 |
| 20260504221535 | 69 | 205 | 1.0 | 6.0 | 0.00 | 0.00 | 0.00 | 36 | 1006.0 |
| 20260504220018 | 70 | 153 | 1.0 | 5.0 | 0.00 | 0.00 | 0.00 | 36 | 1005.9 |
| 20260504214516 | 70 | 148 | 1.0 | 4.0 | 0.00 | 0.00 | 0.00 | 33 | 1005.9 |
| 20260504213019 | 71 | 213 | 1.0 | 7.0 | 0.00 | 0.00 | 0.00 | 36 | 1006.0 |
| 20260504211518 | 70 | 179 | 1.0 | 7.0 | 0.00 | 0.00 | 0.00 | 36 | 1006.2 |
| 20260504210022 | 70 | 304 | 0.0 | 8.0 | 0.00 | 0.00 | 0.00 | 38 | 1006.4 |
| 20260504204522 | 70 | 268 | 0.0 | 10.0 | 0.00 | 0.00 | 0.00 | 35 | 1006.5 |
| 20260504203018 | 70 | 194 | 3.0 | 13.0 | 0.00 | 0.00 | 0.00 | 33 | 1006.7 |
| 20260504200018 | 70 | 274 | 2.0 | 7.0 | 0.00 | 0.00 | 0.00 | 36 | 1007.0 |
| 20260504194529 | 68 | 238 | 0.0 | 10.0 | 0.00 | 0.00 | 0.00 | 38 | 1007.4 |
| 20260504193022 | 67 | 150 | 1.0 | 6.0 | 0.00 | 0.00 | 0.00 | 41 | 1007.4 |
| 20260504191532 | 68 | 178 | 1.0 | 11.0 | 0.00 | 0.00 | 0.00 | 38 | 1007.6 |
| 20260504190024 | 69 | 161 | 1.0 | 7.0 | 0.00 | 0.00 | 0.00 | 39 | 1007.6 |
| 20260504184522 | 69 | 242 | 2.0 | 8.0 | 0.00 | 0.00 | 0.00 | 39 | 1007.7 |
| 20260504183022 | 69 | 236 | 2.0 | 10.0 | 0.00 | 0.00 | 0.00 | 37 | 1007.8 |
| 20260504181524 | 67 | 202 | 0.0 | 5.0 | 0.00 | 0.00 | 0.00 | 41 | 1007.9 |
| 20260504180022 | 66 | 253 | 1.0 | 5.0 | 0.00 | 0.00 | 0.00 | 45 | 1008.1 |
| 20260504174524 | 67 | 178 | 3.0 | 8.0 | 0.00 | 0.00 | 0.00 | 39 | 1008.1 |
| 20260504173022 | 67 | 239 | 2.0 | 7.0 | 0.00 | 0.00 | 0.00 | 45 | 1008.5 |
| 20260504171530 | 66 | 73 | 2.0 | 7.0 | 0.00 | 0.00 | 0.00 | 42 | 1008.3 |
| 20260504081514 | 44 | 146 | 0.0 | 1.0 | 0.00 | 0.00 | 0.00 | 62 | 1010.9 |
| 20260504044526 | 41 | 9 | 0.0 | 0.0 | 0.00 | 0.00 | 0.00 | 73 | 1011.0 |
| 20260504043017 | 42 | 9 | 0.0 | 0.0 | 0.00 | 0.00 | 0.00 | 70 | 1011.0 |
| 20260504041522 | 44 | 9 | 0.0 | 0.0 | 0.00 | 0.00 | 0.00 | 67 | 1011.1 |
| 20260504040039 | 45 | 9 | 0.0 | 0.0 | 0.00 | 0.00 | 0.00 | 65 | 1011.0 |
| 20260504034525 | 45 | 9 | 0.0 | 0.0 | 0.00 | 0.00 | 0.00 | 67 | 1011.1 |
| 20260504033026 | 46 | 9 | 0.0 | 0.0 | 0.00 | 0.00 | 0.00 | 66 | 1011.1 |
| 20260504031523 | 47 | 9 | 0.0 | 0.0 | 0.00 | 0.00 | 0.00 | 60 | 1011.1 |
| 20260504030025 | 46 | 9 | 0.0 | 1.0 | 0.00 | 0.00 | 0.00 | 64 | 1011.2 |
| 20260504024526 | 47 | 9 | 0.0 | 0.0 | 0.00 | 0.00 | 0.00 | 66 | 1011.2 |
| 20260504023030 | 48 | 35 | 0.0 | 0.0 | 0.00 | 0.00 | 0.00 | 58 | 1011.3 |